When you browse on this site, cookies collect data to enhance your experience and personalize the content and advertising you see.
Visit our Privacy Policy to learn more. By continuing to use the site, you agree to this use of cookies and data.
  • Em Portugal
  • Lista de países
  • Para 7 dias
  • Temperatura da água
  • Mapas de satélite
  • Mapa do tempo
  • Widgets de tempo
  • user-avatar
    Iniciar Sessão

    Previsão horária em Romodanovo

    Hoje, 19 Junho, Quarta-feira

    Tempo Temperatura Precipitação Vento Pressão Humidade
    00:00 +16°C° 0 mm 2 m/s 748 mmHg 89%
    01:00 +16°C° 0.1 mm 2 m/s 748 mmHg 91%
    02:00 +16°C° 0.1 mm 3 m/s 748 mmHg 92%
    03:00 +15°C° 0 mm 2 m/s 748 mmHg 94%
    04:00 +16°C° 0 mm 3 m/s 748 mmHg 93%
    05:00 +16°C° 0 mm 3 m/s 748 mmHg 92%
    06:00 +17°C° 0 mm 4 m/s 748 mmHg 90%
    07:00 +18°C° 0.2 mm 4 m/s 748 mmHg 86%
    08:00 +20°C° 0.2 mm 4 m/s 748 mmHg 81%
    09:00 +21°C° 0.2 mm 4 m/s 748 mmHg 76%
    10:00 +22°C° 0.3 mm 4 m/s 749 mmHg 72%
    11:00 +23°C° 0.3 mm 5 m/s 749 mmHg 67%
    12:00 +25°C° 0.3 mm 5 m/s 749 mmHg 62%
    13:00 +25°C° 0.2 mm 5 m/s 749 mmHg 63%
    14:00 +25°C° 0.2 mm 5 m/s 749 mmHg 64%
    15:00 +26°C° 0.2 mm 5 m/s 749 mmHg 64%
    16:00 +25°C° 0.2 mm 4 m/s 749 mmHg 69%
    17:00 +25°C° 0.2 mm 3 m/s 749 mmHg 73%
    18:00 +25°C° 0.2 mm 3 m/s 749 mmHg 77%
    19:00 +23°C° 0.1 mm 2 m/s 749 mmHg 80%
    20:00 +20°C° 0.1 mm 2 m/s 750 mmHg 83%
    21:00 +18°C° 0.1 mm 2 m/s 750 mmHg 86%
    22:00 +18°C° 0 mm 2 m/s 750 mmHg 87%
    23:00 +17°C° 0 mm 2 m/s 750 mmHg 87%

    Amanhã, 20 Junho, Quinta-feira

    Tempo Temperatura Precipitação Vento Pressão Humidade
    00:00 +18°C° 0 mm 1 m/s 750 mmHg 88%
    01:00 +16°C° 0 mm 1 m/s 750 mmHg 89%
    02:00 +16°C° 0 mm 2 m/s 751 mmHg 90%
    03:00 +16°C° 0 mm 2 m/s 751 mmHg 91%
    04:00 +17°C° 0 mm 2 m/s 751 mmHg 89%
    05:00 +18°C° 0 mm 2 m/s 751 mmHg 88%
    06:00 +18°C° 0 mm 2 m/s 752 mmHg 86%
    07:00 +20°C° 0 mm 2 m/s 752 mmHg 82%
    08:00 +21°C° 0 mm 3 m/s 752 mmHg 77%
    09:00 +24°C° 0 mm 3 m/s 752 mmHg 72%
    10:00 +25°C° 0.1 mm 3 m/s 752 mmHg 67%
    11:00 +26°C° 0.1 mm 3 m/s 752 mmHg 61%
    12:00 +27°C° 0.1 mm 3 m/s 752 mmHg 56%
    13:00 +27°C° 0 mm 3 m/s 752 mmHg 55%
    14:00 +27°C° 0 mm 3 m/s 752 mmHg 54%
    15:00 +28°C° 0 mm 3 m/s 752 mmHg 53%
    16:00 +27°C° 0 mm 3 m/s 752 mmHg 58%
    17:00 +27°C° 0 mm 2 m/s 752 mmHg 62%
    18:00 +27°C° 0 mm 2 m/s 752 mmHg 66%
    19:00 +25°C° 0 mm 1 m/s 752 mmHg 70%
    20:00 +22°C° 0 mm 1 m/s 752 mmHg 74%
    21:00 +18°C° 0 mm 0 m/s 752 mmHg 78%
    22:00 +18°C° 0 mm 0 m/s 753 mmHg 79%
    23:00 +20°C° 0 mm 1 m/s 753 mmHg 79%

    Depois de amanhã, 21 Junho, Sexta-feira

    Tempo Temperatura Precipitação Vento Pressão Humidade
    00:00 +19°C° 0 mm 1 m/s 753 mmHg 79%
    01:00 +19°C° 0 mm 1 m/s 753 mmHg 81%
    02:00 +18°C° 0 mm 1 m/s 753 mmHg 83%
    03:00 +18°C° 0 mm 1 m/s 754 mmHg 85%
    04:00 +19°C° 0 mm 1 m/s 754 mmHg 83%
    05:00 +20°C° 0 mm 1 m/s 754 mmHg 82%
    06:00 +20°C° 0 mm 1 m/s 754 mmHg 80%
    07:00 +22°C° 0 mm 1 m/s 754 mmHg 76%
    08:00 +23°C° 0 mm 2 m/s 754 mmHg 72%
    09:00 +25°C° 0 mm 2 m/s 754 mmHg 67%
    10:00 +26°C° 0 mm 2 m/s 754 mmHg 63%
    11:00 +27°C° 0 mm 2 m/s 754 mmHg 58%
    12:00 +28°C° 0 mm 2 m/s 754 mmHg 54%
    13:00 +28°C° 0 mm 2 m/s 754 mmHg 52%
    14:00 +28°C° 0 mm 2 m/s 754 mmHg 51%
    15:00 +28°C° 0 mm 2 m/s 754 mmHg 49%
    16:00 +28°C° 0 mm 2 m/s 754 mmHg 54%
    17:00 +27°C° 0 mm 1 m/s 754 mmHg 59%
    18:00 +27°C° 0 mm 1 m/s 754 mmHg 63%
    19:00 +25°C° 0 mm 1 m/s 754 mmHg 65%
    20:00 +23°C° 0 mm 1 m/s 754 mmHg 67%
    21:00 +21°C° 0 mm 1 m/s 754 mmHg 68%
    22:00 +21°C° 0 mm 1 m/s 754 mmHg 71%
    23:00 +18°C° 0 mm 0 m/s 754 mmHg 73%

    22 Junho, Sábado

    Tempo Temperatura Precipitação Vento Pressão Humidade
    00:00 +17°C° 0 mm 0 m/s 754 mmHg 76%
    01:00 +19°C° 0 mm 1 m/s 754 mmHg 76%
    02:00 +19°C° 0 mm 1 m/s 755 mmHg 77%
    03:00 +18°C° 0 mm 1 m/s 755 mmHg 78%
    04:00 +19°C° 0 mm 1 m/s 755 mmHg 77%
    05:00 +21°C° 0 mm 1 m/s 755 mmHg 76%
    06:00 +22°C° 0 mm 1 m/s 755 mmHg 75%
    07:00 +23°C° 0 mm 2 m/s 755 mmHg 72%
    08:00 +25°C° 0 mm 2 m/s 755 mmHg 68%
    09:00 +26°C° 0 mm 2 m/s 755 mmHg 64%
    10:00 +27°C° 0.1 mm 3 m/s 755 mmHg 61%
    11:00 +28°C° 0.1 mm 3 m/s 755 mmHg 58%
    12:00 +28°C° 0.1 mm 3 m/s 755 mmHg 55%
    13:00 +28°C° 0 mm 2 m/s 755 mmHg 55%
    14:00 +28°C° 0 mm 3 m/s 755 mmHg 56%
    15:00 +29°C° 0 mm 3 m/s 754 mmHg 56%
    16:00 +28°C° 0 mm 3 m/s 754 mmHg 59%
    17:00 +28°C° 0 mm 3 m/s 754 mmHg 63%
    18:00 +27°C° 0 mm 2 m/s 754 mmHg 66%
    19:00 +26°C° 0 mm 2 m/s 754 mmHg 69%
    20:00 +24°C° 0 mm 2 m/s 754 mmHg 72%
    21:00 +21°C° 0 mm 2 m/s 754 mmHg 75%
    22:00 +21°C° 0 mm 2 m/s 754 mmHg 75%
    23:00 +20°C° 0 mm 2 m/s 754 mmHg 76%

    23 Junho, Domingo

    Tempo Temperatura Precipitação Vento Pressão Humidade
    00:00 +19°C° 0 mm 2 m/s 754 mmHg 77%
    01:00 +19°C° 0 mm 2 m/s 754 mmHg 78%
    02:00 +19°C° 0 mm 2 m/s 754 mmHg 78%
    03:00 +18°C° 0 mm 2 m/s 754 mmHg 79%
    04:00 +19°C° 0 mm 2 m/s 754 mmHg 79%
    05:00 +20°C° 0 mm 2 m/s 754 mmHg 80%
    06:00 +21°C° 0 mm 2 m/s 755 mmHg 80%
    07:00 +22°C° 0 mm 3 m/s 755 mmHg 76%
    08:00 +25°C° 0 mm 3 m/s 755 mmHg 72%
    09:00 +27°C° 0 mm 4 m/s 754 mmHg 68%
    10:00 +28°C° 0 mm 4 m/s 754 mmHg 65%
    11:00 +28°C° 0 mm 4 m/s 754 mmHg 63%
    12:00 +29°C° 0 mm 4 m/s 754 mmHg 60%
    13:00 +29°C° 0 mm 4 m/s 754 mmHg 59%
    14:00 +30°C° 0 mm 4 m/s 754 mmHg 59%
    15:00 +30°C° 0 mm 4 m/s 753 mmHg 59%
    16:00 +29°C° 0.2 mm 4 m/s 753 mmHg 64%
    17:00 +29°C° 0.2 mm 3 m/s 753 mmHg 70%
    18:00 +28°C° 0.2 mm 2 m/s 753 mmHg 75%
    19:00 +27°C° 0.1 mm 2 m/s 753 mmHg 79%
    20:00 +25°C° 0.1 mm 2 m/s 753 mmHg 82%
    21:00 +23°C° 0.1 mm 1 m/s 754 mmHg 85%
    22:00 +23°C° 0 mm 1 m/s 754 mmHg 87%
    23:00 +22°C° 0 mm 1 m/s 754 mmHg 88%

    24 Junho, Segunda-feira

    Tempo Temperatura Precipitação Vento Pressão Humidade
    00:00 +22°C° 0 mm 1 m/s 754 mmHg 90%
    01:00 +22°C° 0 mm 1 m/s 754 mmHg 91%
    02:00 +21°C° 0 mm 1 m/s 754 mmHg 91%
    03:00 +21°C° 0 mm 1 m/s 754 mmHg 92%
    04:00 +22°C° 0 mm 1 m/s 754 mmHg 90%
    05:00 +23°C° 0 mm 1 m/s 754 mmHg 88%
    06:00 +24°C° 0 mm 1 m/s 754 mmHg 87%
    07:00 +25°C° 0.2 mm 1 m/s 754 mmHg 82%
    08:00 +26°C° 0.2 mm 1 m/s 754 mmHg 78%
    09:00 +27°C° 0.2 mm 1 m/s 754 mmHg 74%
    10:00 +28°C° 0.9 mm 1 m/s 754 mmHg 70%
    11:00 +29°C° 0.9 mm 2 m/s 754 mmHg 65%
    12:00 +30°C° 0.9 mm 2 m/s 754 mmHg 61%
    13:00 +30°C° 0.1 mm 2 m/s 753 mmHg 60%
    14:00 +30°C° 0.1 mm 2 m/s 753 mmHg 59%
    15:00 +30°C° 0.1 mm 2 m/s 753 mmHg 58%
    16:00 +30°C° 0.3 mm 2 m/s 753 mmHg 64%
    17:00 +29°C° 0.3 mm 1 m/s 753 mmHg 69%
    18:00 +29°C° 0.3 mm 1 m/s 752 mmHg 74%
    19:00 +27°C° 0.2 mm 1 m/s 752 mmHg 77%
    20:00 +25°C° 0.2 mm 1 m/s 752 mmHg 79%
    21:00 +24°C° 0.2 mm 1 m/s 752 mmHg 82%
    22:00 +23°C° 0 mm 1 m/s 752 mmHg 82%
    23:00 +23°C° 0 mm 1 m/s 752 mmHg 83%
    Mostrar mais